TimeEST,TemperatureF,Dew PointF,Humidity,Sea Level PressureIn,VisibilityMPH,Wind Direction,Wind SpeedMPH,Gust SpeedMPH,PrecipitationIn,Events,Conditions,WindDirDegrees,DateUTC
12:53 AM,27.0,23.0,85,30.21,10.0,Calm,Calm,-,N/A,,Clear,0,2013-01-06 05:53:00
1:53 AM,28.9,26.1,89,30.21,10.0,Calm,Calm,-,N/A,,Clear,0,2013-01-06 06:53:00
2:53 AM,30.9,28.0,89,30.22,10.0,Calm,Calm,-,N/A,,Overcast,0,2013-01-06 07:53:00
3:53 AM,33.1,28.9,85,30.17,10.0,Calm,Calm,-,N/A,,Overcast,0,2013-01-06 08:53:00
4:53 AM,35.1,30.9,85,30.14,10.0,ESE,3.5,-,N/A,,Overcast,110,2013-01-06 09:53:00
5:53 AM,36.0,32.0,86,30.11,10.0,South,8.1,-,0.00,Rain,Light Rain,170,2013-01-06 10:53:00
6:03 AM,37.4,33.8,87,30.12,10.0,South,9.2,-,0.00,Rain,Light Rain,190,2013-01-06 11:03:00
6:53 AM,39.0,36.0,89,30.11,10.0,South,12.7,-,0.01,Rain,Light Rain,190,2013-01-06 11:53:00
7:53 AM,36.0,34.0,93,30.11,10.0,West,8.1,-,0.01,Rain,Light Rain,260,2013-01-06 12:53:00
8:13 AM,37.4,35.6,93,30.10,8.0,West,6.9,-,0.00,Rain,Light Rain,260,2013-01-06 13:13:00
8:53 AM,37.9,36.0,93,30.11,7.0,West,8.1,-,0.00,,Overcast,260,2013-01-06 13:53:00
9:29 AM,39.2,37.4,93,30.10,8.0,WSW,10.4,-,N/A,,Overcast,250,2013-01-06 14:29:00
9:53 AM,39.9,37.0,89,30.10,9.0,WSW,11.5,-,N/A,,Overcast,250,2013-01-06 14:53:00
10:53 AM,42.1,37.0,82,30.06,10.0,WSW,13.8,-,N/A,,Overcast,250,2013-01-06 15:53:00
11:53 AM,41.0,36.0,82,30.02,10.0,West,10.4,-,N/A,,Overcast,260,2013-01-06 16:53:00
12:32 PM,41.0,35.6,81,30.00,10.0,West,11.5,-,N/A,,Overcast,260,2013-01-06 17:32:00
12:53 PM,41.0,36.0,82,29.99,10.0,West,13.8,-,N/A,,Overcast,260,2013-01-06 17:53:00
1:24 PM,42.8,37.4,81,29.99,10.0,West,15.0,-,N/A,,Mostly Cloudy,260,2013-01-06 18:24:00
1:53 PM,44.1,37.0,76,29.98,10.0,West,17.3,23.0,N/A,,Clear,270,2013-01-06 18:53:00
2:53 PM,43.0,37.0,80,29.98,10.0,West,11.5,19.6,N/A,,Clear,270,2013-01-06 19:53:00
3:53 PM,41.0,36.0,82,29.96,10.0,West,10.4,-,N/A,,Clear,260,2013-01-06 20:53:00
4:53 PM,39.0,35.1,86,29.96,10.0,West,8.1,-,N/A,,Clear,270,2013-01-06 21:53:00
5:53 PM,37.0,34.0,89,29.98,9.0,WNW,5.8,-,N/A,,Clear,290,2013-01-06 22:53:00
6:53 PM,37.0,35.1,93,29.98,10.0,WNW,6.9,-,N/A,,Clear,300,2013-01-06 23:53:00
7:53 PM,35.1,34.0,96,29.98,8.0,West,6.9,-,N/A,,Clear,280,2013-01-07 00:53:00
8:53 PM,35.1,34.0,96,29.98,8.0,West,6.9,-,N/A,,Clear,280,2013-01-07 01:53:00
9:53 PM,35.1,33.1,92,29.99,8.0,WNW,8.1,-,N/A,,Clear,290,2013-01-07 02:53:00
10:53 PM,34.0,32.0,92,29.99,7.0,WNW,6.9,-,N/A,,Clear,300,2013-01-07 03:53:00
11:53 PM,35.1,32.0,89,29.98,7.0,West,3.5,-,N/A,,Clear,280,2013-01-07 04:53:00